Regional Weather Roundup
Issued by NWS

Home | Current Version | Previous Version | Graphics & Text | Print | Product List | Glossary On
Versions: 1 2 3 4 5 6 7 8 9 10 11 12 13 14 15 16 17 18 19 20 21 22 23 24 25 26 27 28 29 30 31 32 33 34 35 36 37 38 39 40 41 42 43 44 45 46 47 48 49 50
000
ASUS44 KMEG 020000
RWRTN
TENNESSEE HOURLY STATE WEATHER ROUNDUP
NATIONAL WEATHER SERVICE MEMPHIS TN
700 PM CDT FRI AUG 01 2014

TNZ002-004-019-021-049-052-054-088>092-020100-
WEST TENNESSEE

CITY           SKY/WX    TMP DP  RH WIND       PRES   REMARKS
MEMPHIS INTL   MOSUNNY   83  61  47 E6        30.00F
NWS MEMPHIS      N/A     82 N/A N/A MISG        N/A
JACKSON        CLOUDY    81  66  60 SE3       30.02S
DYERSBURG      SUNNY     81  59  47 CALM      30.03S
UNION CITY     CLOUDY    81  66  61 CALM      30.02S
PARIS          SUNNY     81  66  61 CALM      30.04S
SAVANNAH       PTSUNNY   81  70  69 N3        30.02S
$$

TNZ008-025-027-028-033-062-065-066-020100-
NORTH MIDDLE TENNESSEE

CITY           SKY/WX    TMP DP  RH WIND       PRES   REMARKS
NASHVILLE      MOCLDY    83  62  49 SE5       30.03R
CLARKSVILLE    PTCLDY    86  55  34 NE5       30.01S
COOKEVILLE     MOCLDY    79  70  73 CALM      30.05R
CROSSVILLE     CLOUDY    74  65  73 CALM      30.10R
$$

TNZ061-075-076-078-094-096-097-020100-
SOUTH MIDDLE TENNESSEE

CITY           SKY/WX    TMP DP  RH WIND       PRES   REMARKS
FAYETTEVILLE   PTCLDY    79  64  61 E7        30.04S
WINCHESTER     PTCLDY    72  66  83 CALM      30.05S
COLUMBIA       MOCLDY    82  64  54 CALM      30.02R
SHELBYVILLE    CLEAR     81  72  74 CALM      30.04S
$$

TNZ017-018-042-046-047-020100-
NORTHEAST TENNESSEE

CITY           SKY/WX    TMP DP  RH WIND       PRES   REMARKS
TRI CITIES     PTCLDY    75  58  55 E6        30.10R
ELIZABETHTON   CLEAR     70  57  64 E8        30.11R
$$

TNZ012-013-036-069-073-074-020100-
CENTRAL EAST TENNESSEE

CITY           SKY/WX    TMP DP  RH WIND       PRES   REMARKS
KNOXVILLE      MOCLDY    80  65  59 NE3       30.03R
OAK RIDGE      PTCLDY    81  65  58 CALM      30.05R
GATLINBURG     PTCLDY    79  63  57 CALM      30.03R
$$

TNZ083-085-099-020100-
SOUTHEAST TENNESSEE

CITY           SKY/WX    TMP DP  RH WIND       PRES   REMARKS
CHATTANOOGA    MOCLDY    82  65  56 N8        30.02R
$$

SKY/WX REPORTED AS FAIR MEANS FEW OR NO CLOUDS BELOW
12 THOUSAND FEET.



USA.gov is the U.S. government's official web portal to all federal, state and local government web resources and services.